Location: Navarre
(52.9016°N, 113.4144°W)
Time: 13:00:35
(UTC+00:00)

Envisat - Pass Details

Date: 03 December 2021
Orbit: 764 x 766 km, 98.2° (Epoch: 28 January)

Event Time Altitude Azimuth Distance (km) Brightness Sun altitude
Rises 00:46:00 0° 204° (SSW) 3,223 7.0 -12.1°
Reaches altitude 10° 00:48:47 10° 219° (SW) 2,302 6.4 -12.5°
Maximum altitude 00:52:43 22° 270° (W) 1,619 5.6 -13.0°
Drops below altitude 10° 00:56:41 10° 321° (NW) 2,316 5.7 -13.6°
Sets 00:59:30 0° 337° (NNW) 3,248 6.3 -14.0°
